www.pogodaiklimat.ru

Погода и климат >> Архив погоды >> Украина >> Полтава


АРХИВ ПОГОДЫ в Полтаве

Время (UTC), дата Ветер
(напр.,м/с)
 
Видим.   Явления Облачность Т
(С)
Тd
(С)
f
(%)
Тe
(С)
Тes
(С)
Комфортность P
(гПа)
Po
(гПа)
Тmin
(С)
Tmax
(С)
R
(мм)
R24
(мм)
S
(см)
21 16.05 СВ 2 10 км 5/0
[Ci fib]
+17.7 +13.6 77 +18 +18 тепло 1016.8 998.0
00 17.05 СВ 3 10 км 9/0
[Ac trans Ci fib]
+15.8 +13.7 87 +15 +15 тепло 1017.3 998.4
03 17.05 СВ 2 10 км 9/0
[Ac trans Cc]
+14.6 +12.8 89 +14 +14 по сезону 1016.8 997.8
06 17.05 В 4 10 км 9/0
[Cc]
+18.8 +14.3 75 +20 +24 тепло 1016.7 998.0 +14.4
09 17.05 В 3 10 км 8/3 1000 м
[Cu hum Cc]
+23.4 +15.8 62 +28 +36 душно 1016.0 997.6
12 17.05 В 3 10 км 9/6 1000 м
[Cu med, cong Cc]
+25.0 +14.0 50 +27 +31 жарко 1015.2 996.9
15 17.05 В 4 10 км 8/6 1000 м
[Sc diur, vesp Cc]
+25.5 +13.4 47 +28 +28 жарко 1014.8 996.5
18 17.05 СВ 5 10 км 4/0
[Ci fib]
+21.9 +13.2 58 +25 +25 комфорт 1015.0 996.5 +26.5
21 17.05 В 3 10 км 3/0
[Ci fib]
+18.4 +12.3 68 +19 +19 тепло 1015.6 996.9
00 18.05 В 3 10 км 3/0
[Ci fib]
+16.2 +11.2 72 +16 +16 тепло 1015.6 996.7
03 18.05 В 4 10 км 6/6 600 м
[Sc]
+14.2 +8.4 68 +13 +13 по сезону 1015.6 996.6
06 18.05 СВ 4 10 км 3/0
[Ci]
+18.6 +8.6 52 +19 +24 тепло 1014.9 996.2 +14.1
09 18.05 В 6 10 км 9/0
[Ci fib]
+23.4 +12.6 51 +26 +32 жарко 1013.9 995.5
12 18.05 В 4 10 км 9/0
[Ci fib]
+25.4 +8.9 35 +26 +33 жарко 1012.7 994.4
15 18.05 В 4 10 км 9/0
[Ci fib]
+24.2 +8.1 36 +25 +26 комфорт 1011.6 993.3
18 18.05 В 2 10 км 6/0
[Ci fib]
+19.7 +6.6 42 +21 +21 комфорт 1012.5 993.9 +25.9
21 18.05 СВ 2 10 км 3/0
[Ci fib]
+15.6 +5.1 50 +16 +16 тепло 1013.2 994.3
00 19.05 В 2 10 км 4/0
[Ci fib]
+14.5 +6.9 60 +14 +14 тепло 1013.6 994.6
03 19.05 СВ 2 10 км 8/0
[Ci fib]
+13.2 +6.5 64 +13 +13 по сезону 1014.1 995.0
06 19.05 В 2 10 км 3/0
[Ci fib]
+18.5 +8.0 50 +19 +27 тепло 1014.2 995.5 +12.9
09 19.05 В 5 10 км 5/0
[Ci fib]
+22.9 +6.6 35 +24 +31 комфорт 1014.0 995.5
12 19.05 В 5 10 км 3/0
[Ci fib]
+24.4 +6.8 32 +24 +31 комфорт 1013.6 995.2
15 19.05 В 4 10 км 1/0
[Ci fib]
+24.6 +5.6 29 +24 +26 комфорт 1013.4 995.1
18 19.05 В 1 10 км 3/0
[Ci fib]
+20.4 +6.0 39 +22 +22 комфорт 1014.6 996.0 +26.1
21 19.05 штиль 0 10 км ясно +17.6 +6.5 48 +18 +18 тепло 1015.8 997.0
00 20.05 В 1 10 км ясно +15.0 +6.8 58 +16 +16 тепло 1016.9 997.9
03 20.05 СВ 1 10 км ясно +14.2 +6.3 59 +15 +15 тепло 1017.6 998.5
06 20.05 В 4 10 км ясно +19.4 +7.2 45 +20 +26 тепло 1018.7 999.9 +13.1
09 20.05 В 4 10 км 3/0
[Ci fib]
+24.2 +3.9 27 +24 +34 комфорт 1018.5 1000.0
12 20.05 ЮВ 5 10 км 3/0
[Ci fib]
+25.8 +4.3 25 +25 +31 комфорт 1017.6 999.2
15 20.05 ЮВ 4 10 км 3/0
[Ci fib]
+25.2 +4.5 26 +25 +27 комфорт 1016.9 998.5
18 20.05 штиль 0 10 км 1/0
[Ac trans]
+20.3 +5.0 37 +21 +21 комфорт 1017.0 998.3 +26.7
21 20.05 штиль 0 10 км 3/0
[Cs]
+15.8 +4.8 48 +16 +16 тепло 1018.0 999.0
00 21.05 ЮВ 2 10 км 6/0
[As trans Cs]
+15.3 +3.8 46 +15 +15 тепло 1018.0 999.0
03 21.05 ЮВ 2 10 км 9/0
[Ac cast Cs]
+13.7 +4.9 55 +13 +14 по сезону 1017.7 998.6
06 21.05 ЮВ 4 10 км 9/3 600 м
[Sc Ac trans Ci]
+19.4 +5.9 41 +20 +22 тепло 1017.5 998.8 +13.3
09 21.05 ЮВ 4 10 км 10/10 600 м
[Sc]
+21.4 +4.1 32 +22 +22 комфорт 1017.2 998.6
12 21.05 ЮВ 4 10 км {ливн. осадки} 10/10 600 м
[Sc]
+21.8 +5.1 34 +22 +22 комфорт 1015.8 997.2
15 21.05 ЮВ 6 10 км 9/4 600 м
[Sc diur, vesp Ci]
+23.6 +4.8 30 +23 +24 комфорт 1013.7 995.3
18 21.05 ЮВ 1 10 км 9/8 600 м
[Sc Ci fib]
+20.3 +8.0 45 +23 +23 комфорт 1013.8 995.2 +24.2 0.0
21 21.05 ЮВ 1 10 км 8/0
[Ci fib]
+17.5 +7.9 53 +19 +19 тепло 1013.6 994.8
00 22.05 штиль 0 10 км 9/3 600 м
[Sc Ac trans Ci fib]
+14.2 +9.5 73 +14 +14 тепло 1013.0 994.0
03 22.05 штиль 0 10 км 9/1 600 м
[Sc Ac trans Cs]
+14.4 +11.0 80 +14 +14 по сезону 1011.3 992.4
06 22.05 ЮВ 2 10 км гроза без осадков 9/9 600 м
[Cb cap Ac trans Cs]
+18.4 +11.3 63 +19 +20 тепло 1011.1 992.4 +13.9
09 22.05 ЮЗ 1 10 км в посл. час ливневой дождь {гроза} 9/9 600 м
[Cb cap]
+16.0 +14.2 89 +17 +19 по сезону 1009.8 991.0
12 22.05 Ю 3 10 км {гроза, ливн. осадки} 10/10 600 м
[Cb cap]
+19.0 +11.4 61 +20 +20 по сезону 1010.0 991.4
15 22.05 В 3 10 км в посл. час гроза {ливн. осадки} 9/8 600 м
[Cb cap Ac lent Ci ing]
+16.2 +15.2 94 +16 +16 прохладно 1008.7 990.0
18 22.05 ЮВ 1 10 км {гроза, ливн. осадки} 10/3 600 м
[Sc Ac trans Ci fib]
+15.6 +13.8 89 +16 +16 по сезону 1008.4 989.6 +20.1 10
21 22.05 СВ 1 4000 м дымка 9/9 600 м
[Sc Ac trans]
+13.2 +12.8 97 +13 +13 по сезону 1008.0 989.1
00 23.05 СВ 1 1000 м дымка 9/9 600 м
[Sc Ac trans]
+12.6 +12.4 99 +12 +12 по сезону 1007.8 988.8
03 23.05 штиль 0 50 м туман ?/? +12.5 +12.5 100 +12 +12 по сезону 1007.5 988.5
06 23.05 штиль 0 1000 м в посл. час туман 10/10 200 м
[St]
+13.8 +13.4 97 +13 +13 прохладно 1008.0 989.1 +12.4 0.1
09 23.05 В 2 10 км 8/8 600 м
[Cu med, cong Ci fib]
+19.0 +14.2 74 +21 +24 комфорт 1007.9 989.4
12 23.05 штиль 0 10 км 8/8 600 м
[Cu med, cong]
+20.4 +13.5 65 +22 +26 комфорт 1007.7 989.2
15 23.05 штиль 0 10 км 6/6 600 м
[Sc diur, vesp]
+22.4 +13.5 57 +25 +27 комфорт 1007.1 988.8
18 23.05 штиль 0 10 км 5/3 600 м
[Sc diur, vesp Cc]
+19.7 +13.0 65 +21 +21 комфорт 1008.0 989.5 +22.6

 

Местоположение метеостанции Полтава (Полтавская область, Украина): широта 49.60 долгота 34.55 высота над уровнем моря 160 м.

В архиве по умолчанию представлена погода в Полтаве за последнюю неделю. Архивные данные за месяц целиком и за предыдущие месяцы, начиная с января 2011 года, Вы можете получить, выбрав интересующий диапазон дат из раскрывающегося списка и нажав кнопку "Ввод!".


*Определитесь, кто Вы:
робот инопланетянин человек

Внимание! Время в таблицах - всемирное. Для получения местного времени необходимо прибавить поправку, которая равна 2 ч.

Смотрите также архив погоды в соседних городах и на ближайших метеорологических станциях:

Погода в Кобеляках (Полтавская область, Украина) (56 км)
Погода в Коломаке (Харьковская область, Украина) (56 км)
Погода в Краснограде (Харьковская область, Украина) (69 км)
Погода в Веселом Подоле (Полтавская область, Украина) (92 км)
Погода в Гадяче (Полтавская область, Украина) (95 км)
Погода в Боходухове (Харьковская область, Украина) (97 км)
Погода в Губинихе (Днепропетровская область, Украина) (102 км)
Погода в Лебедине (Сумская область, Украина) (109 км)
Погода в Светловодске (Кировоградская область, Украина) (112 км)
Погода в Днепре (Днепропетровская область, Украина) (115 км)

Пояснения к столбцам:

Ветер - указаны скорость ветра в м/с - средняя за 10 мин, порывы в срок и между сроками (в фигурных скобках) и направление, откуда дует ветер: С - северный, СВ - северо-восточный, В - восточный, ЮВ - юго-восточный, Ю - южный, ЮЗ - юго-западный, З - западный, СЗ - северо-западный.
Видимость - горизонтальная дальность видимости в метрах или километрах. При видимости от 1 до 10 км при отсутствии осадков обычно наблюдается дымка, при ухудшении видимости до 1 км и менее - туман. В сухую погоду видимость может ухудшаться дымом, пылью или мглою.
Явления - указаны атмосферные явления, наблюдавшиеся в срок или в последний час перед сроком; фигурными скобками обозначены явления, наблюдавшиеся между сроками (за 1-3 часа до срока); квадратными скобками обозначены град или гололедные отложения с указанием их диаметра в мм.
Облачность - указаны через наклонную черту общая и нижняя облачность в баллах и высота нижней границы облаков в метрах; квадратными скобками обозначены формы облаков: Ci - перистые, Cs - перисто-слоистые, Cc - перисто-кучевые, Ac - высококучевые, As - высокослоистые, Sc - слоисто-кучевые, Ns - слоисто-дождевые, Cu - кучевые, Cb - кучево-дождевые. Подробнее классификацию облаков см. в Атласе облаков (PDF).
T - Температура воздуха - температура, измеренная на высоте 2 м над землей.
Td - Температура точки росы - температура, при понижении до которой содержащийся в воздухе водяной пар достигнет насыщения.
f - Относительная влажность воздуха - влажноcть воздуха, измеренная на высоте 2 м над землей.
Te - Эффективная температура - температура, которую ощущает одетый по сезону человек в тени. Характеристика душности погоды. При расчете учитывается влияние влажности воздуха и скорости ветра на теплоощущения человека.
Tes - Эффективная температура на солнце - температура, которую ощущает человек, с поправкой на солнечный нагрев. Характеристика знойности погоды. Зависит от высоты солнца над горизонтом, облачности и скорости ветра. Ночью, в пасмурную погоду, а также при ветре 12 м/с и более поправка равна нулю.
P - Атмосферное давление - приведенное к уровню моря атмосферное давление.
Po - Атмосферное давление - измеренное на уровне метеостанции атмосферное давление.
Tmin - Минимальная температура - минимум температуры воздуха на высоте 2 м над землей.
Tmax - Максимальная температура - максимум температуры воздуха на высоте 2 м над землей.
R - Количество осадков - Количество выпавших осадков за период времени, мм. При наведении курсора мыши на число - период времени, за который выпало указанное количество осадков.
R24 - Количество осадков - Количество выпавших осадков за 24 часа, мм.
S - Снежный покров - Высота снежного покрова, см. При наведении курсора мыши на число - состояние снежного покрова и степень покрытия местности в баллах.